Wind_Speed
3 4 3 4 4 5 6 7 8 8 8 7 6 4 3 3 3 3 4 5 6 6 6 5 4 4 3 3 3 3 4 4 4 4 4 4 3 4 4 5 5 4 4
5 5 5 5 6 7 8 9 10 10 10 9 8 7 5 4 3 3 3 3 4 4 4 4 4 3 2 2 2 2 2 2 2 2 2 2 2 2 3 4 4 4 4
6 6 7 7 7 8 9 10 11 11 11 11 10 9 8 6 6 5 5 4 3 3 3 3 3 2 1 1 1 1 1 1 1 1 1 1 1 1 1 2 3 4 4
6 6 7 7 7 9 10 11 12 12 12 12 12 11 10 9 9 8 7 7 6 5 4 3 3 2 2 1 1 1 1 1 1 2 1 1 1 2 2 2 3 3 4
6 6 6 7 8 9 10 11 12 13 13 13 13 13 13 12 11 11 10 10 9 8 7 6 5 5 4 4 3 2 2 3 3 3 3 3 3 3 3 4 4 5 5
6 6 6 7 8 9 10 11 12 13 14 14 15 15 15 15 14 14 13 13 12 12 11 10 9 8 8 7 6 5 5 4 4 4 4 4 5 5 5 6 6 6 7
7 7 8 9 9 10 11 12 13 14 15 16 16 16 17 17 17 17 17 16 16 15 14 14 13 12 11 10 10 9 9 8 7 7 7 7 6 7 7 8 8 9 9
8 9 9 10 11 12 13 14 15 16 17 18 18 19 19 20 20 20 20 20 20 19 18 18 16 15 14 14 13 13 13 12 11 11 10 10 10 9 9 10 10 11 11
10 10 11 13 14 15 16 17 18 19 20 20 21 22 22 23 23 23 23 23 23 23 22 21 20 19 18 18 17 16 16 15 15 14 14 13 13 12 12 12 13 13 13
13 14 14 16 16 17 18 20 21 22 23 23 24 24 25 25 26 26 26 26 26 26 25 24 23 22 22 21 20 20 19 19 19 18 17 16 16 15 15 15 15 15 15
15 17 17 19 19 20 22 23 23 24 24 25 26 27 27 28 29 30 30 29 29 29 28 27 26 25 24 24 23 22 21 21 20 19 19 19 19 18 18 17 18 18 18
18 20 20 21 22 24 24 25 25 25 26 27 28 29 30 30 31 32 33 33 32 31 30 29 29 27 26 26 25 24 23 23 22 21 21 20 20 20 19 19 19 19 20
21 23 24 25 25 26 27 27 27 28 29 29 30 31 31 31 32 34 34 34 35 34 33 32 31 29 28 27 26 25 24 23 23 22 22 21 20 20 20 20 19 20 21
24 26 27 28 29 29 30 28 28 29 30 31 31 32 32 32 33 35 35 36 37 36 36 35 33 31 30 29 28 26 26 25 24 23 22 22 21 20 20 20 19 19 20
27 28 29 31 31 31 32 30 31 31 31 31 31 33 33 34 35 36 37 38 38 38 38 36 35 33 32 31 29 28 27 26 26 24 23 23 22 21 21 21 20 19 19
30 31 32 33 34 34 33 33 33 33 33 33 33 34 34 34 35 36 37 38 39 39 40 38 37 35 34 33 31 30 29 28 27 26 25 24 23 23 22 21 21 21 20
33 33 33 35 37 36 35 36 36 36 36 36 36 35 33 33 34 34 35 37 38 40 41 40 38 36 35 34 33 31 30 28 27 26 26 24 23 23 22 21 21 21 21
34 35 36 38 39 38 38 39 39 40 38 37 36 34 32 32 31 32 34 35 37 38 39 39 38 37 35 34 33 32 30 29 27 27 26 25 24 23 22 21 20 20 19
35 37 38 40 40 41 41 42 43 41 40 38 35 33 32 32 31 31 31 32 35 38 39 39 38 37 35 34 34 32 30 29 28 27 26 25 24 22 21 20 19 18 17
36 38 40 42 42 43 43 44 43 41 40 38 34 32 31 31 31 30 29 30 33 36 36 37 38 36 34 33 33 32 31 29 28 27 26 25 23 22 20 19 19 17 16
37 39 41 42 43 43 43 42 41 41 40 37 34 34 33 31 30 28 29 29 30 31 34 36 36 34 34 33 33 32 31 30 29 28 27 25 23 22 20 19 19 17 16
38 40 40 41 42 43 43 42 41 41 40 37 37 36 34 32 30 29 28 28 28 28 31 34 35 35 34 34 33 33 32 30 30 29 28 26 25 23 21 20 19 17 16
36 37 37 38 39 40 40 39 40 40 39 38 37 36 34 34 32 30 29 28 27 29 30 33 34 35 34 33 33 33 32 32 31 30 29 28 26 25 24 22 20 19 17
35 36 37 37 38 38 39 40 41 41 41 40 39 39 38 37 36 33 32 31 30 29 31 33 34 34 33 33 33 33 33 33 33 32 31 30 29 27 26 24 23 21 19
36 37 37 38 39 40 40 41 42 43 43 43 43 43 42 41 39 38 37 35 34 33 32 32 33 34 34 35 34 35 34 35 35 34 34 32 31 30 29 27 25 23 21
37 38 40 40 41 42 43 44 45 46 46 47 47 47 46 45 44 43 43 41 40 39 37 36 35 36 37 37 37 37 37 37 37 37 36 35 34 33 32 30 28 26 24
Wind_Direction
273 276 288 299 307 315 317 315 314 313 312 310 312 317 332 2 23 37 42 45 49 53 55 58 64 68 70 71 76 77 75 75 77 79 81 84 90 100 116 129 134 134 131
286 285 290 296 303 310 311 310 308 308 308 308 308 308 309 316 326 339 355 11 20 29 38 40 43 54 68 78 85 95 95 88 87 93 97 98 97 105 119 132 139 142 143
294 291 293 297 304 309 310 308 306 306 305 305 303 302 300 301 303 308 313 318 327 338 353 5 11 18 36 72 120 151 157 160 142 143 138 140 144 139 143 152 154 156 158
306 306 308 308 310 313 312 310 307 305 304 303 302 299 298 299 299 300 300 299 298 296 299 306 311 313 313 289 241 230 230 226 234 235 232 223 208 200 200 203 196 189 186
312 315 318 321 319 317 314 311 308 306 304 302 301 299 298 297 297 296 295 293 289 283 278 277 278 279 278 276 267 256 247 239 240 246 249 251 249 240 230 227 226 217 210
306 313 319 322 319 315 311 308 306 304 303 302 302 301 298 296 294 293 291 289 286 280 273 267 266 267 267 265 264 263 258 250 247 248 253 254 254 252 246 238 234 230 223
300 307 312 314 311 308 305 302 301 301 301 300 300 300 298 295 294 292 290 287 285 280 273 267 262 261 261 261 260 259 259 257 254 253 253 254 256 253 250 244 239 236 232
297 302 306 307 306 303 301 300 300 299 301 300 298 297 296 294 292 291 290 287 284 280 274 269 263 260 258 258 257 257 257 257 257 257 256 254 255 256 250 246 242 238 235
298 304 306 303 299 297 296 296 297 297 298 299 297 296 294 292 289 288 287 285 283 279 274 269 264 260 258 257 256 256 256 256 256 257 257 255 255 256 253 248 245 242 237
295 301 302 300 296 294 294 295 296 296 296 297 295 293 292 288 285 284 283 281 279 277 274 269 265 261 258 257 256 255 254 255 256 256 255 254 254 255 255 252 248 244 240
292 297 299 298 295 294 296 294 295 295 294 295 293 289 288 286 283 280 278 277 275 273 271 268 264 261 259 257 255 253 253 254 254 255 254 254 253 253 253 252 250 248 244
291 295 297 296 295 295 295 293 295 295 293 292 292 289 288 285 283 280 277 275 273 270 268 266 263 260 258 256 254 252 251 251 251 253 253 253 254 253 253 254 251 249 248
293 296 296 294 294 294 294 293 294 295 294 291 291 290 288 285 282 279 276 273 272 268 266 263 261 259 257 254 253 251 249 249 250 252 252 251 252 252 252 254 254 250 250
292 293 293 292 292 292 293 294 295 297 296 291 288 288 286 284 282 278 275 272 270 267 263 261 259 256 254 253 252 251 249 248 248 251 250 250 250 250 250 252 253 253 253
289 291 291 290 290 290 291 292 296 298 295 292 291 289 286 284 282 279 275 271 269 266 262 258 257 255 253 252 252 251 250 248 248 249 247 246 248 248 250 251 252 252 253
285 287 287 288 288 288 290 291 293 294 294 293 293 291 287 285 285 280 275 270 266 264 261 256 256 254 253 252 251 250 249 248 247 246 246 246 246 247 249 250 253 252 254
282 284 285 286 286 287 289 290 291 293 295 293 293 291 288 287 286 281 275 271 265 261 259 256 254 255 252 252 250 249 248 247 246 245 245 245 246 246 247 247 249 250 252
279 281 282 284 287 287 288 289 290 292 294 294 293 288 287 286 286 282 277 272 266 261 259 257 255 254 253 250 248 247 247 246 244 243 243 243 243 243 243 244 244 247 250
277 279 281 284 285 287 287 288 289 291 292 293 293 289 288 286 283 283 277 271 267 261 257 254 252 252 250 248 247 245 244 244 242 241 241 240 239 239 239 239 241 243 246
279 281 282 284 285 286 287 288 289 290 291 291 291 291 288 287 285 283 279 275 269 259 252 249 250 249 247 247 245 243 243 241 239 237 237 236 236 236 235 236 237 238 241
282 284 285 285 286 286 286 288 288 289 290 288 288 289 288 286 285 282 279 276 269 255 246 246 247 245 244 243 241 241 241 238 237 235 234 233 232 232 232 232 233 234 237
286 287 287 287 287 286 286 287 288 288 287 287 285 285 284 285 282 281 278 274 266 256 250 246 243 242 242 241 241 240 239 238 236 234 232 231 230 230 230 229 231 234 238
289 290 289 290 289 289 289 288 288 288 286 284 283 281 281 282 282 279 273 270 266 258 251 245 240 239 239 240 241 240 238 237 235 234 232 229 229 230 230 229 232 235 239
293 295 294 293 292 291 290 289 289 287 285 283 282 280 279 279 279 276 271 265 262 260 255 247 239 237 236 239 240 239 238 236 234 233 231 230 230 230 230 231 233 236 239
296 296 296 295 294 292 291 289 287 286 285 283 281 279 277 276 274 273 268 263 260 257 254 250 241 236 237 239 240 239 238 236 235 233 231 230 231 231 231 232 234 237 240
297 297 296 295 293 292 290 289 287 285 283 281 280 277 275 273 270 268 265 260 257 255 252 250 247 243 241 239 239 239 239 237 236 234 232 231 232 232 232 233 234 237 240
Height
5923 5923 5922 5922 5922 5921 5920 5920 5920 5919 5918 5917 5916 5915 5914 5913 5912 5911 5910 5909 5908 5907 5907 5906 5905 5904 5904 5903 5903 5902 5901 5901 5900 5900 5899 5899 5899 5899 5899 5899 5899 5899 5899
5923 5922 5922 5922 5921 5921 5920 5920 5919 5919 5918 5917 5916 5915 5914 5913 5912 5911 5910 5909 5909 5908 5907 5906 5906 5905 5904 5904 5903 5903 5902 5902 5901 5901 5900 5900 5900 5900 5900 5900 5900 5900 5900
5922 5921 5921 5921 5920 5920 5920 5919 5919 5918 5917 5917 5916 5915 5914 5913 5912 5911 5910 5909 5908 5908 5907 5906 5906 5905 5905 5904 5903 5903 5902 5902 5902 5901 5901 5901 5900 5900 5901 5901 5901 5901 5901
5920 5920 5920 5920 5920 5919 5919 5918 5918 5917 5916 5916 5915 5914 5913 5912 5911 5910 5909 5909 5908 5907 5907 5906 5906 5905 5905 5904 5903 5903 5903 5902 5902 5901 5901 5901 5900 5900 5901 5901 5901 5901 5902
5919 5918 5918 5918 5918 5918 5917 5917 5916 5916 5915 5914 5913 5912 5912 5911 5910 5909 5908 5908 5907 5906 5906 5905 5905 5904 5904 5904 5903 5903 5902 5902 5901 5901 5901 5900 5900 5900 5901 5901 5901 5902 5902
5917 5917 5916 5916 5916 5916 5915 5915 5914 5914 5913 5912 5911 5910 5910 5909 5908 5907 5906 5906 5905 5905 5904 5904 5903 5903 5902 5902 5902 5902 5901 5901 5901 5901 5900 5900 5900 5900 5900 5901 5901 5902 5902
5915 5915 5914 5914 5914 5914 5913 5913 5912 5911 5910 5909 5908 5908 5907 5906 5905 5905 5904 5903 5903 5902 5902 5901 5901 5900 5900 5900 5900 5900 5900 5900 5899 5899 5899 5899 5899 5899 5900 5900 5900 5901 5902
5914 5913 5912 5912 5912 5911 5911 5910 5909 5908 5907 5906 5905 5904 5903 5903 5902 5902 5901 5900 5900 5899 5899 5899 5898 5898 5898 5898 5897 5898 5898 5898 5897 5898 5898 5898 5898 5898 5899 5899 5899 5900 5900
5912 5911 5910 5910 5909 5908 5907 5907 5906 5905 5904 5902 5901 5900 5899 5898 5898 5897 5897 5896 5896 5895 5895 5895 5894 5894 5894 5894 5894 5894 5895 5895 5895 5895 5895 5896 5896 5896 5897 5897 5898 5898 5899
5909 5909 5908 5907 5906 5905 5904 5903 5902 5900 5899 5898 5897 5895 5894 5893 5892 5891 5891 5891 5890 5890 5890 5890 5890 5890 5890 5890 5890 5890 5891 5891 5891 5891 5892 5893 5893 5894 5894 5895 5895 5895 5896
5907 5906 5905 5904 5903 5902 5901 5899 5897 5896 5894 5893 5891 5890 5888 5887 5886 5885 5885 5884 5884 5884 5884 5884 5885 5885 5885 5885 5885 5885 5886 5886 5887 5887 5888 5889 5889 5890 5891 5891 5892 5892 5893
5904 5903 5902 5901 5899 5898 5896 5894 5893 5891 5889 5887 5886 5884 5882 5881 5879 5878 5878 5877 5877 5877 5877 5878 5878 5878 5879 5879 5879 5880 5881 5881 5882 5883 5883 5884 5885 5886 5886 5887 5888 5888 5889
5901 5900 5898 5897 5895 5893 5892 5890 5888 5886 5884 5882 5879 5878 5876 5874 5872 5871 5870 5869 5869 5869 5869 5870 5871 5872 5872 5873 5873 5874 5875 5876 5877 5877 5878 5879 5880 5881 5882 5883 5883 5884 5885
5897 5895 5894 5892 5890 5889 5887 5885 5883 5880 5878 5875 5873 5870 5868 5867 5865 5863 5862 5861 5861 5861 5862 5862 5864 5865 5865 5866 5867 5868 5869 5870 5871 5872 5874 5875 5875 5877 5877 5878 5879 5879 5880
5892 5891 5889 5887 5885 5883 5881 5878 5877 5874 5871 5868 5866 5863 5861 5859 5857 5855 5854 5852 5852 5852 5853 5854 5856 5857 5858 5859 5861 5862 5863 5864 5865 5867 5868 5869 5870 5872 5873 5874 5874 5875 5876
5887 5885 5883 5881 5878 5876 5874 5872 5870 5867 5864 5861 5859 5856 5853 5850 5848 5846 5844 5843 5843 5843 5844 5846 5847 5849 5851 5853 5854 5855 5857 5858 5859 5861 5862 5864 5865 5866 5868 5869 5870 5870 5871
5880 5879 5877 5874 5871 5869 5867 5865 5862 5859 5856 5854 5851 5848 5844 5842 5839 5837 5835 5834 5834 5834 5835 5837 5838 5841 5843 5845 5847 5848 5850 5852 5853 5855 5856 5858 5859 5861 5862 5863 5865 5866 5866
5874 5872 5870 5867 5864 5861 5858 5856 5853 5851 5848 5846 5842 5839 5836 5833 5831 5828 5826 5825 5824 5824 5826 5828 5830 5832 5835 5837 5839 5841 5843 5845 5847 5849 5850 5852 5853 5855 5857 5858 5859 5861 5862
5867 5865 5862 5859 5856 5852 5850 5847 5844 5841 5839 5837 5834 5830 5828 5825 5822 5820 5817 5815 5815 5815 5817 5820 5822 5824 5827 5830 5832 5835 5837 5838 5840 5843 5845 5847 5848 5850 5851 5853 5854 5856 5858
5859 5857 5854 5851 5847 5844 5841 5838 5835 5832 5830 5827 5825 5822 5819 5816 5814 5811 5809 5807 5807 5807 5808 5812 5815 5817 5819 5822 5825 5827 5830 5831 5834 5836 5839 5841 5843 5845 5846 5848 5850 5851 5853
5851 5848 5845 5841 5837 5834 5831 5828 5825 5822 5820 5818 5816 5814 5811 5808 5806 5803 5802 5800 5799 5799 5801 5804 5807 5809 5812 5815 5818 5820 5823 5825 5827 5830 5833 5835 5837 5839 5841 5843 5845 5847 5848
5842 5839 5835 5831 5827 5824 5821 5818 5815 5812 5810 5808 5806 5804 5802 5800 5798 5795 5793 5793 5793 5793 5795 5797 5799 5802 5805 5808 5810 5813 5816 5819 5821 5823 5826 5829 5832 5834 5836 5838 5840 5842 5844
5833 5829 5825 5821 5818 5814 5811 5808 5805 5802 5799 5798 5796 5794 5793 5791 5789 5788 5786 5786 5786 5787 5787 5789 5791 5794 5797 5800 5803 5806 5809 5811 5814 5817 5820 5822 5825 5828 5831 5833 5835 5837 5839
5824 5820 5816 5812 5808 5805 5801 5798 5795 5792 5789 5787 5785 5784 5782 5781 5780 5779 5778 5779 5779 5779 5780 5781 5783 5786 5789 5792 5795 5798 5801 5804 5807 5810 5814 5816 5819 5822 5825 5827 5830 5833 5834
5815 5811 5807 5803 5799 5795 5791 5788 5784 5781 5778 5776 5774 5773 5771 5770 5770 5769 5769 5770 5770 5771 5772 5773 5775 5777 5780 5783 5786 5790 5792 5796 5799 5802 5806 5809 5812 5815 5818 5821 5824 5827 5829
5807 5802 5798 5793 5789 5785 5781 5777 5773 5769 5766 5764 5761 5760 5759 5758 5758 5758 5758 5759 5760 5761 5763 5765 5766 5768 5771 5774 5777 5781 5784 5787 5791 5794 5798 5801 5805 5808 5812 5815 5818 5820 5823